| time (UTC) | temp F | wind direction | speed knots | gust knots | rain 1hr in | rain 24hr in | rain mn in | humidity % | barometer mb |
| 20260504223046 | 51 | 45 | 0.0 | 0.0 | 0.00 | 0.00 | 0.00 | 83 | 1010.6 |
| 20260504221601 | 51 | 42 | 0.0 | 0.0 | 0.00 | 0.00 | 0.00 | 84 | 1010.7 |
| 20260504220038 | 51 | 57 | 0.0 | 0.0 | 0.00 | 0.00 | 0.00 | 84 | 1010.7 |
| 20260504214537 | 52 | 60 | 0.0 | 0.0 | 0.00 | 0.00 | 0.00 | 84 | 1010.8 |
| 20260504213039 | 52 | 60 | 0.0 | 0.0 | 0.00 | 0.00 | 0.00 | 84 | 1010.9 |
| 20260504211534 | 53 | 40 | 0.0 | 0.0 | 0.00 | 0.00 | 0.00 | 83 | 1010.8 |
| 20260504210031 | 53 | 59 | 0.0 | 0.0 | 0.00 | 0.00 | 0.00 | 83 | 1010.9 |
| 20260504204528 | 54 | 58 | 0.0 | 0.0 | 0.00 | 0.00 | 0.00 | 83 | 1010.9 |
| 20260504203024 | 54 | 58 | 0.0 | 3.5 | 0.00 | 0.00 | 0.00 | 83 | 1010.9 |
| 20260504201526 | 55 | 63 | 0.0 | 0.0 | 0.00 | 0.00 | 0.00 | 82 | 1011.1 |
| 20260504200021 | 55 | 61 | 0.0 | 0.0 | 0.00 | 0.00 | 0.00 | 81 | 1011.0 |
| 20260504194522 | 56 | 38 | 1.7 | 3.5 | 0.00 | 0.00 | 0.00 | 80 | 1011.0 |
| 20260504193018 | 57 | 66 | 1.7 | 4.3 | 0.00 | 0.00 | 0.00 | 80 | 1011.0 |
| 20260504191512 | 57 | 22 | 1.7 | 4.3 | 0.00 | 0.00 | 0.00 | 79 | 1011.0 |
| 20260504190017 | 58 | 47 | 2.6 | 7.0 | 0.00 | 0.00 | 0.00 | 77 | 1010.9 |
| 20260504184523 | 59 | 28 | 3.5 | 8.7 | 0.00 | 0.00 | 0.00 | 76 | 1010.8 |
| 20260504183004 | 59 | 355 | 2.6 | 9.6 | 0.00 | 0.00 | 0.00 | 75 | 1010.6 |
| 20260504181501 | 60 | 22 | 7.0 | 10.4 | 0.00 | 0.00 | 0.00 | 74 | 1010.5 |
| 20260504180100 | 60 | 47 | 4.3 | 11.3 | 0.00 | 0.00 | 0.00 | 74 | 1010.4 |
| 20260504174557 | 61 | 30 | 3.5 | 7.0 | 0.00 | 0.00 | 0.00 | 74 | 1010.2 |
| 20260504173101 | 61 | 27 | 4.3 | 8.7 | 0.00 | 0.00 | 0.00 | 73 | 1010.1 |
| 20260504171556 | 62 | 24 | 3.5 | 7.8 | 0.00 | 0.00 | 0.00 | 72 | 1010.1 |
| 20260504081511 | 64 | 240 | 10.4 | 14.8 | 0.00 | 0.00 | 0.00 | 68 | 1009.7 |
| 20260504044535 | 60 | 227 | 0.0 | 4.3 | 0.00 | 0.00 | 0.00 | 67 | 1008.5 |
| 20260504043033 | 60 | 260 | 0.0 | 7.8 | 0.00 | 0.00 | 0.00 | 66 | 1008.4 |
| 20260504041529 | 60 | 259 | 4.3 | 7.0 | 0.00 | 0.00 | 0.00 | 66 | 1008.6 |
| 20260504040026 | 61 | 246 | 2.6 | 6.1 | 0.00 | 0.00 | 0.00 | 65 | 1008.4 |
| 20260504034522 | 61 | 234 | 0.0 | 0.0 | 0.00 | 0.00 | 0.00 | 64 | 1008.3 |
| 20260504033019 | 61 | 213 | 0.0 | 4.3 | 0.00 | 0.00 | 0.00 | 63 | 1008.2 |
| 20260504031517 | 62 | 240 | 1.7 | 4.3 | 0.00 | 0.00 | 0.00 | 62 | 1008.2 |
| 20260504030014 | 62 | 242 | 0.9 | 4.3 | 0.00 | 0.00 | 0.00 | 60 | 1008.0 |
| 20260504024512 | 63 | 250 | 1.7 | 7.0 | 0.00 | 0.00 | 0.00 | 59 | 1008.1 |
| 20260504023011 | 63 | 261 | 2.6 | 4.3 | 0.00 | 0.00 | 0.00 | 58 | 1008.0 |
| 20260504021510 | 63 | 261 | 0.0 | 3.5 | 0.00 | 0.00 | 0.00 | 57 | 1008.0 |
| 20260504020009 | 63 | 260 | 0.9 | 4.3 | 0.00 | 0.00 | 0.00 | 56 | 1007.9 |
| 20260504014504 | 64 | 264 | 1.7 | 3.5 | 0.00 | 0.00 | 0.00 | 54 | 1007.7 |
| 20260504013002 | 64 | 275 | 2.6 | 7.8 | 0.00 | 0.00 | 0.00 | 53 | 1007.7 |
| 20260504011501 | 65 | 261 | 0.9 | 7.0 | 0.00 | 0.00 | 0.00 | 52 | 1007.7 |
| 20260504010059 | 65 | 294 | 4.3 | 9.6 | 0.00 | 0.00 | 0.00 | 53 | 1007.7 |
| 20260504004556 | 65 | 275 | 2.6 | 7.0 | 0.00 | 0.00 | 0.00 | 54 | 1007.5 |
| 20260504003054 | 65 | 272 | 3.5 | 10.4 | 0.00 | 0.00 | 0.00 | 54 | 1007.6 |
| 20260504001553 | 65 | 286 | 3.5 | 8.7 | 0.00 | 0.00 | 0.00 | 54 | 1007.6 |
| 20260504000123 | 66 | 246 | 4.3 | 8.7 | 0.00 | 0.00 | 0.00 | 52 | 1007.7 |
| 20260503234547 | 66 | 257 | 3.5 | 10.4 | 0.00 | 0.00 | 0.00 | 50 | 1007.5 |
| 20260503233044 | 67 | 266 | 0.9 | 7.8 | 0.00 | 0.00 | 0.00 | 49 | 1007.8 |
| 20260503231543 | 67 | 243 | 0.9 | 4.3 | 0.00 | 0.00 | 0.00 | 48 | 1007.8 |
| 20260503230042 | 67 | 261 | 0.0 | 6.1 | 0.00 | 0.00 | 0.00 | 47 | 1007.7 |
| 20260503224540 | 67 | 262 | 2.6 | 7.0 | 0.00 | 0.00 | 0.00 | 47 | 1007.8 |